User: anonymous   Login
Location: Brunembert
(50.7122°N, 1.8935°E)
Time: 14:26:48
(UTC+00:00)
Language:

FALCON 9 DEB - Orbit

View from above orbital plane
View from above orbital plane
View from above satellite
View from above satellite

Ground track
Ground track

The orbit data is extracted from the following two-line orbital elements,

1 46085U 20055BL  21169.04631474  .00012530  00000-0  13178-3 0  9997
2 46085  53.0092 195.1439 0007855 250.9916 109.0247 15.64737255 53751
Epoch (UTC): 18 June 2021 01:06:41
Eccentricity: 0.0007855
inclination: 53.0092°
perigee height: 368 km
apogee height: 379 km
right ascension of ascending node: 195.1439°
argument of perigee: 250.9916°
revolutions per day: 15.64737255
mean anomaly at epoch: 109.0247°
orbit number at epoch: 5375

The dashed part of the orbit path shows where the satellite is in the earth's shadow,  

DLR